Regional Weather Roundup
Issued by NWS

Home | Current Version | Previous Version | Text Only | Print | Product List | Glossary Off
Versions: 1 2 3 4 5 6 7 8 9 10 11 12 13 14 15 16 17 18 19 20 21 22 23 24 25 26 27 28 29 30 31 32 33 34 35 36 37 38 39 40 41 42 43 44 45 46 47 48 49 50

000
ASUS43 KFSD 250610
RWRSD

WEATHER ROUNDUP FOR SOUTH DAKOTA
NATIONAL WEATHER SERVICE SIOUX FALLS SD
100 AM CDT MON SEP 25 2017

NOTE: "FAIR" INDICATES FEW OR NO CLOUDS BELOW 12,000 FEET WITH NO
SIGNIFICANT WEATHER AND/OR OBSTRUCTIONS TO VISIBILITY.


SDZ001>005-009-010-012>017-250700-
NORTHWEST AND NORTH CENTRAL SOUTH DAKOTA

CITY           SKY/WX    TMP DP  RH WIND       PRES   REMARKS
BUFFALO          N/A     44  42  93 NW5       30.06F
FAITH            N/A     46  45  96 N8        30.12R
MOBRIDGE       CLOUDY    50  46  86 N10       30.08R
$$

SDZ012>016-024>037-041>051-057-063-072>074-250700-
SOUTHWEST AND SOUTH CENTRAL SOUTH DAKOTA

CITY           SKY/WX    TMP DP  RH WIND       PRES   REMARKS
RAPID CTY ARPT NOT AVBL
PIERRE         CLOUDY    50  46  86 N12       30.08S
CUSTER         LGT RAIN  38  36  92 NE12      30.09S FOG
ELLSWORTH AFB  CLOUDY    46  45  99 N7        30.11
PHILIP         CLOUDY    49  47  93 N5        30.12R
PINE RIDGE     CLOUDY    46  44  93 NE7       30.09F
SPEARFISH      MOCLDY    41  41 100 CALM      30.13S FOG
WINNER         CLOUDY    52  48  86 N10       30.07F
$$

SDZ004>011-016>023-039-040-250700-
NORTHEAST SOUTH DAKOTA

CITY           SKY/WX    TMP DP  RH WIND       PRES   REMARKS
ABERDEEN       CLOUDY    50  47  89 N10       30.07S
WATERTOWN      CLOUDY    50  49  96 N9        30.02R
BROOKINGS      CLOUDY    52  50  93 N8        30.03S
SISSETON         N/A     52  49  89 NW12      30.03S
$$

SDZ017-020-022-023-036>040-048>070-250700-
SOUTHEAST SOUTH DAKOTA

CITY           SKY/WX    TMP DP  RH WIND       PRES   REMARKS
SIOUX FALLS    CLOUDY    56  54  93 N10       30.00S
HURON          CLOUDY    52  49  89 N9        30.07R
CHAMBERLAIN    CLOUDY    53  51  94 N9        30.07F
MITCHELL       RAIN      53  51  93 N8        30.03F
YANKTON        HVY RAIN  54  52  94 NW13      30.02F
$$

ABBREVIATIONS USED IN REMARKS
   TC - TEMPERATURE IN CELSIUS
  WCI - WIND CHILL INDEX
   HX - HEAT INDEX
  VSB - VISIBILITY





USA.gov is the U.S. government's official web portal to all federal, state and local government web resources and services.